Weather History for Spirit of St Louis, MO

Change the Weather History Date:

Tuesday, January 7, 2014

  Actual Average Record
Temperature  
Mean Temperature 8 °F -  
Max Temperature 26 °F 38 °F 21 °F (2015)
Min Temperature -9 °F 21 °F 1 °F (2015)
Degree Days  
Heating Degree Days 56    
Moisture  
Dew Point -2 °F    
Average Humidity 58    
Maximum Humidity 76    
Minimum Humidity 44    
Precipitation  
Precipitation 0.00 in - - ()
Sea Level Pressure  
Sea Level Pressure 30.38 in    
Wind  
Wind Speed 6 mph (SSW)    
Max Wind Speed 14 mph    
Max Gust Speed 18 mph    
Visibility 10 miles    
Events      
Averages and records for this station are not official NWS values.
T = Trace of Precipitation, MM = Missing Value Source: NWS Daily Summary

Daily Weather History Graph

Daily Weather History Graph

Search for Another Location

Airport:

Trip Planner

Search our weather history database for the weather conditions in past years. The results will help you decide how hot, cold, wet, or windy it might be!

Date:

Astronomy

Jan. 07, 2014 Rise Set
Actual Time 7:20 AM CST 4:57 PM CST
Civil Twilight 6:51 AM CST 5:26 PM CST
Nautical Twilight 6:18 AM CST 5:59 PM CST
Astronomical Twilight 5:46 AM CST 6:32 PM CST
Moon 11:14 AM CST (1/7) No Moon Set
Length of Visible Light 10h 35m
Length of Day
9h 36m
Waxing Crescent, 46% of the Moon is Illuminated
Jan 7
Waxing Crescent
Jan 7
First Quarter
Jan 15
Full
Jan 23
Last Quarter
Jan 30
New

Hourly Weather History & Observations

Time (CST) Temp. Windchill Dew Point Humidity Pressure Visibility Wind Dir Wind Speed Gust Speed Precip Events Conditions
12:54 AM -6.0 °F -22.6 °F -16.1 °F 62% 30.54 in 10.0 mi WSW 9.2 mph - N/A   Clear
1:54 AM -5.1 °F -20.4 °F -15.0 °F 62% 30.54 in 10.0 mi WSW 8.1 mph - N/A   Clear
2:54 AM -6.0 °F - -15.0 °F 65% 30.53 in 10.0 mi Calm Calm - N/A   Clear
3:54 AM -6.0 °F -22.6 °F -16.1 °F 62% 30.53 in 10.0 mi WSW 9.2 mph - N/A   Clear
4:54 AM -4.0 °F -19.0 °F -14.1 °F 62% 30.49 in 10.0 mi WSW 8.1 mph - N/A   Clear
5:54 AM -6.0 °F -18.6 °F -15.0 °F 65% 30.50 in 10.0 mi WSW 5.8 mph - N/A   Clear
6:54 AM -7.1 °F - -15.0 °F 68% 30.51 in 10.0 mi Calm Calm - N/A   Clear
7:54 AM -9.0 °F - -15.0 °F 75% 30.51 in 10.0 mi Calm Calm - N/A   Scattered Clouds
8:54 AM -5.1 °F - -11.0 °F 76% 30.50 in 10.0 mi Calm Calm - N/A   Mostly Cloudy
9:54 AM 5.0 °F - -6.0 °F 61% 30.48 in 10.0 mi Calm Calm - N/A   Overcast
10:54 AM 9.0 °F -0.9 °F -6.0 °F 51% 30.43 in 10.0 mi South 5.8 mph - N/A   Overcast
11:54 AM 14.0 °F -0.8 °F -2.9 °F 47% 30.35 in 10.0 mi South 13.8 mph 18.4 mph N/A   Overcast
12:54 PM 18.0 °F 5.4 °F 1.9 °F 50% 30.28 in 10.0 mi SSE 11.5 mph - N/A   Mostly Cloudy
1:54 PM 23.0 °F 12.4 °F 5.0 °F 46% 30.25 in 10.0 mi South 10.4 mph - N/A   Partly Cloudy
2:54 PM 25.0 °F 14.8 °F 6.1 °F 45% 30.23 in 10.0 mi SSE 10.4 mph - N/A   Clear
3:54 PM 26.1 °F 19.4 °F 7.0 °F 44% 30.23 in 10.0 mi South 5.8 mph - N/A   Clear
4:54 PM 26.1 °F 20.5 °F 8.1 °F 47% 30.23 in 10.0 mi SSE 4.6 mph - N/A   Clear
5:54 PM 24.1 °F 17.0 °F 9.0 °F 53% 30.25 in 10.0 mi SSE 5.8 mph - N/A   Clear
6:54 PM 25.0 °F 19.3 °F 9.0 °F 51% 30.25 in 10.0 mi South 4.6 mph - N/A   Clear
7:54 PM 21.0 °F - 9.0 °F 60% 30.27 in 10.0 mi Calm Calm - N/A   Clear
8:54 PM 24.1 °F 18.2 °F 10.0 °F 55% 30.27 in 10.0 mi SSW 4.6 mph - N/A   Clear
9:54 PM 21.9 °F 17.2 °F 10.0 °F 60% 30.27 in 10.0 mi SSW 3.5 mph - N/A   Clear
10:54 PM 21.9 °F 15.7 °F 10.0 °F 60% 30.28 in 10.0 mi WSW 4.6 mph - N/A   Clear
11:54 PM 18.0 °F 11.1 °F 9.0 °F 68% 30.28 in 10.0 mi WSW 4.6 mph - N/A   Clear